| time (UTC) | temp C | wind direction | speed KPH | gust KPH | rain 1hr cm | rain 24hr cm | rain mn cm | humidity % | barometer mb |
| 20260831123542 | 22 | 184 | 0.0 | 0.0 | 0.00 | 0.00 | 0.00 | 94 | 1012.7 |
| 20260831123031 | 22 | 184 | 0.0 | 0.0 | 0.00 | 0.00 | 0.00 | 93 | 1012.6 |
| 20260831122521 | 22 | 184 | 0.0 | 0.0 | 0.00 | 0.00 | 0.00 | 93 | 1012.7 |
| 20260831122010 | 22 | 184 | 0.0 | 0.0 | 0.00 | 0.00 | 0.00 | 93 | 1012.6 |
| 20260831121601 | 22 | 184 | 0.0 | 0.0 | 0.00 | 0.00 | 0.00 | 92 | 1012.5 |
| 20260831121050 | 22 | 184 | 0.0 | 0.0 | 0.00 | 0.00 | 0.00 | 92 | 1012.4 |
| 20260831120539 | 22 | 184 | 0.0 | 0.0 | 0.00 | 0.00 | 0.00 | 92 | 1012.3 |
| 20260831120018 | 22 | 184 | 0.0 | 0.0 | 0.00 | 0.00 | 0.00 | 92 | 1012.4 |
| 20260831115505 | 22 | 184 | 0.0 | 0.0 | 0.00 | 0.00 | 0.00 | 92 | 1012.4 |
| 20260831115057 | 22 | 184 | 0.0 | 0.0 | 0.00 | 0.00 | 0.00 | 92 | 1012.4 |
| 20260831114547 | 22 | 184 | 0.0 | 0.0 | 0.00 | 0.00 | 0.00 | 92 | 1012.4 |
| 20260831114036 | 23 | 184 | 0.0 | 0.0 | 0.00 | 0.00 | 0.00 | 92 | 1012.3 |
| 20260831113525 | 23 | 184 | 0.0 | 0.0 | 0.00 | 0.00 | 0.00 | 92 | 1012.3 |
| 20260831113014 | 23 | 184 | 0.0 | 0.0 | 0.00 | 0.00 | 0.00 | 92 | 1012.3 |
| 20260831112504 | 23 | 184 | 0.0 | 0.0 | 0.00 | 0.00 | 0.00 | 92 | 1012.2 |
| 20260831112056 | 23 | 184 | 0.0 | 0.0 | 0.00 | 0.00 | 0.00 | 91 | 1012.2 |
| 20260831111544 | 23 | 184 | 0.0 | 0.0 | 0.00 | 0.00 | 0.00 | 91 | 1012.4 |
| 20260831111034 | 23 | 184 | 0.0 | 0.0 | 0.00 | 0.00 | 0.00 | 91 | 1012.3 |
| 20260831110526 | 23 | 184 | 0.0 | 0.0 | 0.00 | 0.00 | 0.00 | 91 | 1012.3 |
| 20260831110108 | 23 | 184 | 0.0 | 0.0 | 0.00 | 0.00 | 0.00 | 91 | 1012.3 |
| 20260831105550 | 23 | 184 | 0.0 | 0.0 | 0.00 | 0.00 | 0.00 | 91 | 1012.3 |
| 20260831105040 | 23 | 184 | 0.0 | 0.0 | 0.00 | 0.00 | 0.00 | 91 | 1012.3 |
| 20260831104536 | 23 | 184 | 0.0 | 0.0 | 0.00 | 0.00 | 0.00 | 91 | 1012.3 |
| 20260831104018 | 23 | 184 | 0.0 | 0.0 | 0.00 | 0.00 | 0.00 | 91 | 1012.4 |
| 20260831103509 | 23 | 184 | 0.0 | 0.0 | 0.00 | 0.00 | 0.00 | 91 | 1012.4 |
| 20260831103058 | 23 | 184 | 0.0 | 0.0 | 0.00 | 0.00 | 0.00 | 91 | 1012.3 |
| 20260831102548 | 23 | 184 | 0.0 | 0.0 | 0.00 | 0.00 | 0.00 | 91 | 1012.4 |
| 20260831102037 | 23 | 184 | 0.0 | 1.6 | 0.00 | 0.00 | 0.00 | 91 | 1012.4 |
| 20260831101527 | 23 | 184 | 0.0 | 1.6 | 0.00 | 0.00 | 0.00 | 91 | 1012.4 |
| 20260831101017 | 23 | 184 | 0.0 | 4.8 | 0.00 | 0.00 | 0.00 | 91 | 1012.5 |
| 20260831100508 | 23 | 184 | 0.0 | 4.8 | 0.00 | 0.00 | 0.00 | 90 | 1012.5 |
| 20260831100044 | 23 | 183 | 0.0 | 3.2 | 0.00 | 0.00 | 0.00 | 90 | 1012.5 |
| 20260831095531 | 24 | 173 | 0.0 | 8.0 | 0.00 | 0.00 | 0.00 | 90 | 1012.4 |
| 20260831095021 | 24 | 167 | 1.6 | 8.0 | 0.00 | 0.00 | 0.00 | 90 | 1012.5 |
| 20260831094510 | 24 | 171 | 1.6 | 11.3 | 0.00 | 0.00 | 0.00 | 90 | 1012.5 |
| 20260831094102 | 24 | 146 | 1.6 | 11.3 | 0.00 | 0.00 | 0.00 | 90 | 1012.4 |
| 20260831093552 | 24 | 172 | 1.6 | 8.0 | 0.00 | 0.00 | 0.00 | 90 | 1012.4 |
| 20260831093040 | 24 | 149 | 4.8 | 11.3 | 0.00 | 0.00 | 0.00 | 90 | 1012.3 |
| 20260831092534 | 24 | 173 | 0.0 | 6.4 | 0.00 | 0.00 | 0.00 | 90 | 1012.3 |
| 20260831092019 | 24 | 162 | 3.2 | 14.5 | 0.00 | 0.00 | 0.00 | 90 | 1012.3 |
| 20260831091508 | 24 | 167 | 1.6 | 14.5 | 0.00 | 0.00 | 0.00 | 89 | 1012.3 |
| 20260831091100 | 24 | 159 | 4.8 | 8.0 | 0.00 | 0.00 | 0.00 | 89 | 1012.3 |
| 20260831090549 | 24 | 127 | 3.2 | 11.3 | 0.00 | 0.00 | 0.00 | 89 | 1012.2 |
| 20260831090027 | 24 | 169 | 3.2 | 9.7 | 0.00 | 0.00 | 0.00 | 89 | 1012.3 |
| 20260831085517 | 24 | 168 | 4.8 | 12.9 | 0.00 | 0.00 | 0.00 | 88 | 1012.3 |
| 20260831085005 | 24 | 152 | 3.2 | 12.9 | 0.00 | 0.00 | 0.00 | 88 | 1012.3 |
| 20260831084603 | 24 | 168 | 6.4 | 12.9 | 0.00 | 0.00 | 0.00 | 88 | 1012.4 |
| 20260831084045 | 24 | 178 | 1.6 | 12.9 | 0.00 | 0.00 | 0.00 | 87 | 1012.4 |
| 20260831083536 | 24 | 165 | 4.8 | 12.9 | 0.00 | 0.00 | 0.00 | 86 | 1012.4 |
| 20260831083027 | 24 | 161 | 3.2 | 9.7 | 0.00 | 0.00 | 0.00 | 86 | 1012.4 |
| 20260831082514 | 24 | 148 | 1.6 | 12.9 | 0.00 | 0.00 | 0.00 | 86 | 1012.4 |
| 20260831082005 | 24 | 159 | 3.2 | 12.9 | 0.00 | 0.00 | 0.00 | 85 | 1012.5 |
| 20260831081555 | 25 | 177 | 3.2 | 11.3 | 0.00 | 0.00 | 0.00 | 85 | 1012.5 |
| 20260831081045 | 25 | 173 | 3.2 | 11.3 | 0.00 | 0.00 | 0.00 | 85 | 1012.4 |
| 20260831080534 | 25 | 175 | 3.2 | 11.3 | 0.00 | 0.00 | 0.00 | 84 | 1012.4 |
| 20260831080011 | 25 | 149 | 0.0 | 8.0 | 0.00 | 0.00 | 0.00 | 84 | 1012.4 |
| 20260831075602 | 25 | 135 | 1.6 | 8.0 | 0.00 | 0.00 | 0.00 | 83 | 1012.5 |
| 20260831075051 | 25 | 165 | 0.0 | 4.8 | 0.00 | 0.00 | 0.00 | 83 | 1012.4 |
| 20260831074541 | 25 | 159 | 1.6 | 9.7 | 0.00 | 0.00 | 0.00 | 83 | 1012.5 |
| 20260831074030 | 25 | 165 | 1.6 | 9.7 | 0.00 | 0.00 | 0.00 | 82 | 1012.5 |
| 20260831073520 | 25 | 169 | 0.0 | 8.0 | 0.00 | 0.00 | 0.00 | 82 | 1012.5 |
| 20260831073006 | 25 | 161 | 1.6 | 9.7 | 0.00 | 0.00 | 0.00 | 82 | 1012.5 |
| 20260831072556 | 25 | 146 | 1.6 | 8.0 | 0.00 | 0.00 | 0.00 | 81 | 1012.5 |
| 20260831072048 | 25 | 141 | 1.6 | 8.0 | 0.00 | 0.00 | 0.00 | 81 | 1012.5 |
| 20260831071536 | 25 | 148 | 1.6 | 8.0 | 0.00 | 0.00 | 0.00 | 81 | 1012.6 |
| 20260831071026 | 25 | 119 | 3.2 | 8.0 | 0.00 | 0.00 | 0.00 | 80 | 1012.5 |
| 20260831070514 | 25 | 156 | 0.0 | 8.0 | 0.00 | 0.00 | 0.00 | 80 | 1012.5 |
| 20260831070104 | 25 | 165 | 1.6 | 12.9 | 0.00 | 0.00 | 0.00 | 79 | 1012.6 |
| 20260831065543 | 26 | 176 | 4.8 | 12.9 | 0.00 | 0.00 | 0.00 | 79 | 1012.6 |
| 20260831065031 | 26 | 153 | 1.6 | 11.3 | 0.00 | 0.00 | 0.00 | 78 | 1012.7 |
| 20260831064521 | 26 | 158 | 1.6 | 11.3 | 0.00 | 0.00 | 0.00 | 78 | 1012.7 |
| 20260831064010 | 26 | 169 | 3.2 | 14.5 | 0.00 | 0.00 | 0.00 | 77 | 1012.7 |
| 20260831063601 | 26 | 158 | 4.8 | 14.5 | 0.00 | 0.00 | 0.00 | 77 | 1012.8 |
| 20260831063052 | 26 | 151 | 4.8 | 11.3 | 0.00 | 0.00 | 0.00 | 77 | 1012.9 |
| 20260831062540 | 26 | 128 | 3.2 | 12.9 | 0.00 | 0.00 | 0.00 | 76 | 1012.8 |
| 20260831062030 | 26 | 152 | 4.8 | 12.9 | 0.00 | 0.00 | 0.00 | 76 | 1012.7 |
| 20260831061519 | 26 | 144 | 1.6 | 17.7 | 0.00 | 0.00 | 0.00 | 75 | 1012.6 |
| 20260831061011 | 26 | 170 | 8.0 | 17.7 | 0.00 | 0.00 | 0.00 | 75 | 1012.6 |
| 20260831060600 | 26 | 142 | 4.8 | 14.5 | 0.00 | 0.00 | 0.00 | 74 | 1012.6 |
| 20260831060036 | 26 | 144 | 6.4 | 12.9 | 0.00 | 0.00 | 0.00 | 74 | 1012.5 |
| 20260831055525 | 27 | 182 | 4.8 | 14.5 | 0.00 | 0.00 | 0.00 | 74 | 1012.5 |
| 20260831055014 | 27 | 184 | 1.6 | 11.3 | 0.00 | 0.00 | 0.00 | 74 | 1012.4 |
| 20260831054503 | 27 | 175 | 3.2 | 11.3 | 0.00 | 0.00 | 0.00 | 74 | 1012.4 |
| 20260831054055 | 27 | 175 | 4.8 | 14.5 | 0.00 | 0.00 | 0.00 | 74 | 1012.4 |
| 20260831053545 | 27 | 185 | 8.0 | 14.5 | 0.00 | 0.00 | 0.00 | 74 | 1012.4 |
| 20260831053039 | 27 | 159 | 6.4 | 14.5 | 0.00 | 0.00 | 0.00 | 73 | 1012.3 |
| 20260831052524 | 27 | 125 | 8.0 | 22.5 | 0.00 | 0.00 | 0.00 | 73 | 1012.3 |
| 20260831052012 | 27 | 158 | 6.4 | 22.5 | 0.00 | 0.00 | 0.00 | 72 | 1012.3 |
| 20260831051506 | 27 | 152 | 9.7 | 17.7 | 0.00 | 0.00 | 0.00 | 72 | 1012.2 |
| 20260831051053 | 27 | 140 | 8.0 | 17.7 | 0.00 | 0.00 | 0.00 | 71 | 1012.3 |
| 20260831050545 | 27 | 113 | 3.2 | 14.5 | 0.00 | 0.00 | 0.00 | 71 | 1012.2 |
| 20260831050019 | 27 | 116 | 0.0 | 9.7 | 0.00 | 0.00 | 0.00 | 70 | 1012.2 |
| 20260831045512 | 28 | 156 | 3.2 | 9.7 | 0.00 | 0.00 | 0.00 | 70 | 1012.1 |
| 20260831045102 | 28 | 126 | 4.8 | 12.9 | 0.00 | 0.00 | 0.00 | 69 | 1012.1 |
| 20260831044548 | 28 | 132 | 1.6 | 12.9 | 0.00 | 0.00 | 0.00 | 69 | 1012.0 |
| 20260831044037 | 28 | 169 | 3.2 | 16.1 | 0.00 | 0.00 | 0.00 | 69 | 1012.0 |
| 20260831043526 | 28 | 138 | 8.0 | 19.3 | 0.00 | 0.00 | 0.00 | 68 | 1012.0 |
| 20260831043016 | 28 | 134 | 6.4 | 22.5 | 0.00 | 0.00 | 0.00 | 68 | 1012.0 |
| 20260831042505 | 28 | 115 | 14.5 | 22.5 | 0.00 | 0.00 | 0.00 | 67 | 1011.9 |
| 20260831042057 | 28 | 153 | 8.0 | 24.1 | 0.00 | 0.00 | 0.00 | 67 | 1011.9 |
| 20260831041546 | 28 | 138 | 8.0 | 16.1 | 0.00 | 0.00 | 0.00 | 66 | 1011.9 |
| 20260831041035 | 28 | 159 | 6.4 | 16.1 | 0.00 | 0.00 | 0.00 | 66 | 1012.0 |
| 20260831040525 | 28 | 136 | 6.4 | 16.1 | 0.00 | 0.00 | 0.00 | 66 | 1011.9 |
| 20260831040002 | 28 | 155 | 9.7 | 16.1 | 0.00 | 0.00 | 0.00 | 65 | 1012.0 |
| 20260831035553 | 28 | 159 | 9.7 | 24.1 | 0.00 | 0.00 | 0.00 | 65 | 1012.0 |
| 20260831035041 | 29 | 183 | 11.3 | 24.1 | 0.00 | 0.00 | 0.00 | 65 | 1011.8 |
| 20260831034531 | 29 | 149 | 11.3 | 24.1 | 0.00 | 0.00 | 0.00 | 65 | 1011.8 |
| 20260831034020 | 29 | 156 | 4.8 | 12.9 | 0.00 | 0.00 | 0.00 | 65 | 1011.7 |
| 20260831033511 | 29 | 162 | 3.2 | 12.9 | 0.00 | 0.00 | 0.00 | 64 | 1011.7 |
| 20260831033111 | 29 | 149 | 3.2 | 12.9 | 0.00 | 0.00 | 0.00 | 64 | 1011.6 |
| 20260831032554 | 29 | 131 | 4.8 | 12.9 | 0.00 | 0.00 | 0.00 | 64 | 1011.6 |
| 20260831032041 | 30 | 135 | 3.2 | 12.9 | 0.00 | 0.00 | 0.00 | 64 | 1011.5 |
| 20260831031530 | 30 | 144 | 3.2 | 14.5 | 0.00 | 0.00 | 0.00 | 63 | 1011.5 |
| 20260831031025 | 30 | 153 | 6.4 | 16.1 | 0.00 | 0.00 | 0.00 | 63 | 1011.4 |
| 20260831030511 | 30 | 157 | 3.2 | 12.9 | 0.00 | 0.00 | 0.00 | 63 | 1011.3 |
| 20260831030048 | 30 | 151 | 8.0 | 14.5 | 0.00 | 0.00 | 0.00 | 63 | 1011.2 |
| 20260831025538 | 30 | 182 | 6.4 | 16.1 | 0.00 | 0.00 | 0.00 | 63 | 1011.2 |
| 20260831025027 | 30 | 140 | 4.8 | 12.9 | 0.00 | 0.00 | 0.00 | 63 | 1011.0 |
| 20260831024516 | 30 | 142 | 4.8 | 12.9 | 0.00 | 0.00 | 0.00 | 62 | 1010.9 |
| 20260831024006 | 30 | 162 | 3.2 | 16.1 | 0.00 | 0.00 | 0.00 | 62 | 1010.8 |
| 20260831023600 | 30 | 155 | 6.4 | 16.1 | 0.00 | 0.00 | 0.00 | 62 | 1010.7 |
| 20260831023046 | 30 | 137 | 6.4 | 17.7 | 0.00 | 0.00 | 0.00 | 61 | 1010.6 |
| 20260831022535 | 30 | 122 | 9.7 | 17.7 | 0.00 | 0.00 | 0.00 | 61 | 1010.6 |
| 20260831022024 | 30 | 130 | 4.8 | 19.3 | 0.00 | 0.00 | 0.00 | 60 | 1010.5 |
| 20260831021515 | 30 | 140 | 9.7 | 19.3 | 0.00 | 0.00 | 0.00 | 60 | 1010.4 |
| 20260831021006 | 30 | 123 | 8.0 | 17.7 | 0.00 | 0.00 | 0.00 | 60 | 1010.3 |
| 20260831020554 | 30 | 143 | 8.0 | 17.7 | 0.00 | 0.00 | 0.00 | 60 | 1010.3 |
| 20260831020032 | 30 | 175 | 9.7 | 16.1 | 0.00 | 0.00 | 0.00 | 59 | 1010.1 |
| 20260831015524 | 30 | 136 | 6.4 | 16.1 | 0.00 | 0.00 | 0.00 | 57 | 1010.1 |
| 20260831015010 | 30 | 106 | 4.8 | 14.5 | 0.00 | 0.00 | 0.00 | 56 | 1010.1 |
| 20260831014602 | 30 | 123 | 8.0 | 14.5 | 0.00 | 0.00 | 0.00 | 55 | 1010.1 |
| 20260831014051 | 31 | 101 | 0.0 | 0.0 | 0.00 | 0.00 | 0.00 | 55 | 1010.0 |
| 20260831013540 | 31 | 101 | 0.0 | 0.0 | 0.00 | 0.00 | 0.00 | 54 | 1009.8 |
| 20260831013030 | 31 | 101 | 0.0 | 1.6 | 0.00 | 0.00 | 0.00 | 54 | 1009.8 |
| 20260831012519 | 31 | 101 | 0.0 | 1.6 | 0.00 | 0.00 | 0.00 | 51 | 1009.7 |
| 20260831012008 | 32 | 101 | 0.0 | 1.6 | 0.00 | 0.00 | 0.00 | 50 | 1009.8 |
| 20260831011600 | 32 | 101 | 0.0 | 1.6 | 0.00 | 0.00 | 0.00 | 49 | 1009.8 |
| 20260831011053 | 32 | 101 | 0.0 | 1.6 | 0.00 | 0.00 | 0.00 | 49 | 1009.8 |
| 20260831010538 | 32 | 101 | 0.0 | 3.2 | 0.00 | 0.00 | 0.00 | 49 | 1009.8 |
| 20260831010015 | 32 | 101 | 0.0 | 3.2 | 0.00 | 0.00 | 0.00 | 48 | 1009.8 |
| 20260831005504 | 33 | 107 | 0.0 | 4.8 | 0.00 | 0.00 | 0.00 | 47 | 1009.7 |
| 20260831005056 | 33 | 112 | 0.0 | 6.4 | 0.00 | 0.00 | 0.00 | 47 | 1009.5 |
| 20260831004546 | 33 | 113 | 0.0 | 9.7 | 0.00 | 0.00 | 0.00 | 47 | 1009.5 |
| 20260831004034 | 33 | 88 | 1.6 | 12.9 | 0.00 | 0.00 | 0.00 | 47 | 1009.5 |
| 20260831003523 | 33 | 79 | 3.2 | 14.5 | 0.00 | 0.00 | 0.00 | 47 | 1009.4 |
| 20260831003016 | 33 | 91 | 4.8 | 14.5 | 0.00 | 0.00 | 0.00 | 47 | 1009.3 |
| 20260831002502 | 34 | 135 | 3.2 | 14.5 | 0.00 | 0.00 | 0.00 | 46 | 1009.3 |
| 20260831002053 | 34 | 175 | 8.0 | 14.5 | 0.00 | 0.00 | 0.00 | 45 | 1009.4 |
| 20260831001543 | 34 | 170 | 6.4 | 14.5 | 0.00 | 0.00 | 0.00 | 44 | 1009.4 |
| 20260831001035 | 35 | 146 | 8.0 | 14.5 | 0.00 | 0.00 | 0.00 | 44 | 1009.4 |
| 20260831000523 | 35 | 136 | 3.2 | 14.5 | 0.00 | 0.00 | 0.00 | 44 | 1009.5 |
| 20260831000112 | 35 | 140 | 6.4 | 17.7 | 0.00 | 0.00 | 0.00 | 44 | 1009.4 |
| 20260830235552 | 35 | 151 | 3.2 | 17.7 | 0.00 | 0.00 | 0.00 | 43 | 1009.4 |
| 20260830235040 | 35 | 143 | 9.7 | 16.1 | 0.00 | 0.00 | 0.00 | 42 | 1009.4 |
| 20260830234536 | 35 | 133 | 1.6 | 17.7 | 0.00 | 0.00 | 0.00 | 43 | 1009.4 |
| 20260830234019 | 35 | 138 | 8.0 | 17.7 | 0.00 | 0.00 | 0.00 | 43 | 1009.4 |
| 20260830233507 | 35 | 107 | 8.0 | 17.7 | 0.00 | 0.00 | 0.00 | 43 | 1009.4 |
| 20260830233056 | 35 | 122 | 4.8 | 19.3 | 0.00 | 0.00 | 0.00 | 43 | 1009.4 |
| 20260830232546 | 35 | 157 | 11.3 | 19.3 | 0.00 | 0.00 | 0.00 | 42 | 1009.5 |
| 20260830232034 | 36 | 186 | 8.0 | 17.7 | 0.00 | 0.00 | 0.00 | 42 | 1009.4 |
| 20260830231523 | 36 | 139 | 4.8 | 14.5 | 0.00 | 0.00 | 0.00 | 42 | 1009.4 |
| 20260830231013 | 36 | 182 | 9.7 | 19.3 | 0.00 | 0.00 | 0.00 | 41 | 1009.4 |
| 20260830230501 | 36 | 167 | 9.7 | 19.3 | 0.00 | 0.00 | 0.00 | 40 | 1009.4 |
| 20260830230041 | 36 | 148 | 9.7 | 17.7 | 0.00 | 0.00 | 0.00 | 40 | 1009.4 |
| 20260830225530 | 36 | 136 | 8.0 | 17.7 | 0.00 | 0.00 | 0.00 | 40 | 1009.5 |
| 20260830225016 | 36 | 133 | 6.4 | 16.1 | 0.00 | 0.00 | 0.00 | 41 | 1009.6 |
| 20260830224505 | 36 | 152 | 6.4 | 16.1 | 0.00 | 0.00 | 0.00 | 41 | 1009.6 |
| 20260830224057 | 36 | 211 | 8.0 | 17.7 | 0.00 | 0.00 | 0.00 | 42 | 1009.7 |
| 20260830223546 | 36 | 115 | 8.0 | 19.3 | 0.00 | 0.00 | 0.00 | 42 | 1009.7 |
| 20260830223035 | 36 | 198 | 4.8 | 20.9 | 0.00 | 0.00 | 0.00 | 42 | 1009.6 |
| 20260830222525 | 36 | 132 | 9.7 | 19.3 | 0.00 | 0.00 | 0.00 | 42 | 1009.7 |
| 20260830222015 | 35 | 146 | 6.4 | 12.9 | 0.00 | 0.00 | 0.00 | 41 | 1009.7 |
| 20260830221504 | 35 | 155 | 6.4 | 16.1 | 0.00 | 0.00 | 0.00 | 41 | 1009.8 |
| 20260830221055 | 36 | 101 | 8.0 | 24.1 | 0.00 | 0.00 | 0.00 | 42 | 1009.7 |
| 20260830220544 | 36 | 112 | 9.7 | 24.1 | 0.00 | 0.00 | 0.00 | 41 | 1009.8 |
| 20260830220022 | 36 | 180 | 8.0 | 17.7 | 0.00 | 0.00 | 0.00 | 42 | 1009.7 |
| 20260830215511 | 36 | 163 | 12.9 | 17.7 | 0.00 | 0.00 | 0.00 | 41 | 1009.8 |
| 20260830215102 | 36 | 212 | 8.0 | 20.9 | 0.00 | 0.00 | 0.00 | 43 | 1009.8 |
| 20260830214551 | 36 | 211 | 11.3 | 20.9 | 0.00 | 0.00 | 0.00 | 43 | 1009.9 |
| 20260830214040 | 36 | 164 | 11.3 | 19.3 | 0.00 | 0.00 | 0.00 | 42 | 1009.9 |
| 20260830213529 | 36 | 185 | 8.0 | 17.7 | 0.00 | 0.00 | 0.00 | 43 | 1010.0 |
| 20260830213018 | 36 | 96 | 9.7 | 17.7 | 0.00 | 0.00 | 0.00 | 42 | 1010.1 |
| 20260830212507 | 35 | 180 | 9.7 | 17.7 | 0.00 | 0.00 | 0.00 | 44 | 1010.1 |
| 20260830212100 | 35 | 142 | 8.0 | 19.3 | 0.00 | 0.00 | 0.00 | 44 | 1010.2 |
| 20260830211550 | 35 | 175 | 11.3 | 19.3 | 0.00 | 0.00 | 0.00 | 46 | 1010.3 |
| 20260830211038 | 35 | 115 | 4.8 | 16.1 | 0.00 | 0.00 | 0.00 | 46 | 1010.3 |
| 20260830210527 | 35 | 98 | 4.8 | 14.5 | 0.00 | 0.00 | 0.00 | 46 | 1010.4 |
| 20260830210006 | 35 | 140 | 3.2 | 20.9 | 0.00 | 0.00 | 0.00 | 45 | 1010.5 |
| 20260830205552 | 35 | 142 | 14.5 | 20.9 | 0.00 | 0.00 | 0.00 | 45 | 1010.6 |
| 20260830205042 | 35 | 222 | 9.7 | 16.1 | 0.00 | 0.00 | 0.00 | 45 | 1010.7 |
| 20260830204531 | 35 | 138 | 9.7 | 16.1 | 0.00 | 0.00 | 0.00 | 46 | 1010.8 |
| 20260830204020 | 35 | 175 | 11.3 | 19.3 | 0.00 | 0.00 | 0.00 | 47 | 1010.7 |
| 20260830203510 | 35 | 182 | 11.3 | 19.3 | 0.00 | 0.00 | 0.00 | 46 | 1010.8 |
| 20260830203100 | 35 | 182 | 8.0 | 24.1 | 0.00 | 0.00 | 0.00 | 48 | 1010.9 |
| 20260830202549 | 35 | 88 | 3.2 | 24.1 | 0.00 | 0.00 | 0.00 | 48 | 1011.0 |
| 20260830202038 | 35 | 173 | 3.2 | 19.3 | 0.00 | 0.00 | 0.00 | 48 | 1011.1 |
| 20260830201527 | 35 | 190 | 9.7 | 19.3 | 0.00 | 0.00 | 0.00 | 49 | 1011.2 |
| 20260830201016 | 35 | 178 | 8.0 | 22.5 | 0.00 | 0.00 | 0.00 | 49 | 1011.4 |
| 20260830200505 | 35 | 184 | 11.3 | 22.5 | 0.00 | 0.00 | 0.00 | 48 | 1011.5 |
| 20260830200045 | 35 | 154 | 12.9 | 17.7 | 0.00 | 0.00 | 0.00 | 47 | 1011.5 |
| 20260830195535 | 35 | 163 | 6.4 | 20.9 | 0.00 | 0.00 | 0.00 | 48 | 1011.5 |
| 20260830195024 | 35 | 168 | 8.0 | 20.9 | 0.00 | 0.00 | 0.00 | 49 | 1011.7 |
| 20260830194513 | 35 | 168 | 9.7 | 25.7 | 0.00 | 0.00 | 0.00 | 49 | 1011.6 |
| 20260830194002 | 35 | 144 | 12.9 | 25.7 | 0.00 | 0.00 | 0.00 | 49 | 1011.8 |
| 20260830193552 | 35 | 123 | 9.7 | 19.3 | 0.00 | 0.00 | 0.00 | 49 | 1011.9 |
| 20260830193042 | 34 | 186 | 8.0 | 14.5 | 0.00 | 0.00 | 0.00 | 50 | 1011.9 |
| 20260830192530 | 33 | 91 | 8.0 | 16.1 | 0.00 | 0.00 | 0.00 | 51 | 1012.0 |
| 20260830192024 | 33 | 102 | 4.8 | 14.5 | 0.00 | 0.00 | 0.00 | 52 | 1012.0 |
| 20260830191513 | 34 | 122 | 9.7 | 14.5 | 0.00 | 0.00 | 0.00 | 51 | 1012.1 |
| 20260830191100 | 33 | 169 | 3.2 | 16.1 | 0.00 | 0.00 | 0.00 | 52 | 1012.2 |
| 20260830190552 | 33 | 159 | 9.7 | 20.9 | 0.00 | 0.00 | 0.00 | 51 | 1012.3 |
| 20260830190028 | 33 | 148 | 11.3 | 20.9 | 0.00 | 0.00 | 0.00 | 51 | 1012.4 |
| 20260830185517 | 33 | 96 | 1.6 | 17.7 | 0.00 | 0.00 | 0.00 | 53 | 1012.3 |
| 20260830185006 | 33 | 131 | 8.0 | 17.7 | 0.00 | 0.00 | 0.00 | 53 | 1012.5 |
| 20260830184601 | 33 | 179 | 6.4 | 22.5 | 0.00 | 0.00 | 0.00 | 53 | 1012.5 |
| 20260830184046 | 33 | 122 | 12.9 | 22.5 | 0.00 | 0.00 | 0.00 | 52 | 1012.6 |
| 20260830183535 | 34 | 120 | 8.0 | 16.1 | 0.00 | 0.00 | 0.00 | 51 | 1012.7 |
| 20260830183025 | 34 | 173 | 4.8 | 17.7 | 0.00 | 0.00 | 0.00 | 51 | 1012.9 |
| 20260830182516 | 33 | 174 | 9.7 | 17.7 | 0.00 | 0.00 | 0.00 | 52 | 1013.0 |
| 20260830182003 | 33 | 217 | 9.7 | 19.3 | 0.00 | 0.00 | 0.00 | 52 | 1013.0 |
| 20260830181555 | 33 | 191 | 9.7 | 19.3 | 0.00 | 0.00 | 0.00 | 52 | 1013.1 |
| 20260830181044 | 33 | 185 | 8.0 | 19.3 | 0.00 | 0.00 | 0.00 | 52 | 1013.2 |
| 20260830180538 | 33 | 136 | 8.0 | 20.9 | 0.00 | 0.00 | 0.00 | 51 | 1013.2 |
| 20260830180008 | 33 | 117 | 6.4 | 19.3 | 0.00 | 0.00 | 0.00 | 52 | 1013.2 |
| 20260830175559 | 33 | 138 | 1.6 | 19.3 | 0.00 | 0.00 | 0.00 | 52 | 1013.3 |
| 20260830175048 | 33 | 175 | 9.7 | 17.7 | 0.00 | 0.00 | 0.00 | 53 | 1013.4 |
| 20260830174538 | 33 | 165 | 6.4 | 17.7 | 0.00 | 0.00 | 0.00 | 53 | 1013.4 |
| 20260830174027 | 33 | 196 | 3.2 | 17.7 | 0.00 | 0.00 | 0.00 | 52 | 1013.5 |
| 20260830173517 | 33 | 129 | 9.7 | 19.3 | 0.00 | 0.00 | 0.00 | 52 | 1013.7 |
| 20260830173008 | 33 | 117 | 8.0 | 19.3 | 0.00 | 0.00 | 0.00 | 53 | 1013.8 |
| 20260830172557 | 33 | 96 | 3.2 | 12.9 | 0.00 | 0.00 | 0.00 | 54 | 1013.7 |
| 20260830172046 | 33 | 186 | 3.2 | 14.5 | 0.00 | 0.00 | 0.00 | 55 | 1013.8 |
| 20260830171536 | 32 | 195 | 3.2 | 17.7 | 0.00 | 0.00 | 0.00 | 56 | 1013.9 |
| 20260830171025 | 32 | 223 | 8.0 | 17.7 | 0.00 | 0.00 | 0.00 | 56 | 1014.0 |
| 20260830170514 | 32 | 188 | 9.7 | 16.1 | 0.00 | 0.00 | 0.00 | 56 | 1013.9 |
| 20260830170053 | 32 | 173 | 1.6 | 16.1 | 0.00 | 0.00 | 0.00 | 57 | 1014.0 |
| 20260830165543 | 32 | 180 | 9.7 | 19.3 | 0.00 | 0.00 | 0.00 | 57 | 1014.0 |
| 20260830165031 | 32 | 140 | 4.8 | 16.1 | 0.00 | 0.00 | 0.00 | 57 | 1014.0 |
| 20260830164521 | 32 | 205 | 8.0 | 16.1 | 0.00 | 0.00 | 0.00 | 58 | 1014.0 |
| 20260830164013 | 31 | 172 | 3.2 | 17.7 | 0.00 | 0.00 | 0.00 | 59 | 1014.0 |
| 20260830163601 | 31 | 145 | 9.7 | 17.7 | 0.00 | 0.00 | 0.00 | 60 | 1014.1 |
| 20260830163053 | 31 | 220 | 6.4 | 16.1 | 0.00 | 0.00 | 0.00 | 60 | 1014.2 |
| 20260830162539 | 31 | 165 | 6.4 | 16.1 | 0.00 | 0.00 | 0.00 | 61 | 1014.2 |
| 20260830162030 | 31 | 204 | 8.0 | 19.3 | 0.00 | 0.00 | 0.00 | 62 | 1014.1 |
| 20260830161517 | 30 | 182 | 12.9 | 19.3 | 0.00 | 0.00 | 0.00 | 62 | 1014.1 |
| 20260830161007 | 30 | 142 | 11.3 | 17.7 | 0.00 | 0.00 | 0.00 | 63 | 1014.1 |
| 20260830160559 | 30 | 161 | 11.3 | 17.7 | 0.00 | 0.00 | 0.00 | 64 | 1014.1 |
| 20260830160035 | 30 | 198 | 9.7 | 22.5 | 0.00 | 0.00 | 0.00 | 65 | 1014.1 |
| 20260830155524 | 30 | 122 | 9.7 | 22.5 | 0.00 | 0.00 | 0.00 | 67 | 1014.1 |
| 20260830155016 | 29 | 176 | 9.7 | 16.1 | 0.00 | 0.00 | 0.00 | 69 | 1014.2 |
| 20260830154504 | 28 | 158 | 8.0 | 16.1 | 0.00 | 0.00 | 0.00 | 70 | 1014.1 |
| 20260830154053 | 28 | 234 | 3.2 | 14.5 | 0.00 | 0.00 | 0.00 | 72 | 1014.1 |
| 20260830153546 | 28 | 202 | 6.4 | 14.5 | 0.00 | 0.00 | 0.00 | 74 | 1014.0 |
| 20260830153032 | 28 | 254 | 3.2 | 11.3 | 0.00 | 0.00 | 0.00 | 74 | 1014.0 |
| 20260830152522 | 28 | 167 | 4.8 | 12.9 | 0.00 | 0.00 | 0.00 | 75 | 1014.1 |
| 20260830152010 | 28 | 195 | 4.8 | 16.1 | 0.00 | 0.00 | 0.00 | 74 | 1014.0 |
| 20260830151610 | 27 | 190 | 4.8 | 16.1 | 0.00 | 0.00 | 0.00 | 76 | 1014.1 |
| 20260830151051 | 27 | 182 | 8.0 | 16.1 | 0.00 | 0.00 | 0.00 | 76 | 1014.1 |
| 20260830150541 | 27 | 200 | 9.7 | 16.1 | 0.00 | 0.00 | 0.00 | 76 | 1014.1 |
| 20260830150019 | 27 | 206 | 8.0 | 16.1 | 0.00 | 0.00 | 0.00 | 77 | 1014.1 |
| 20260830145510 | 27 | 246 | 3.2 | 16.1 | 0.00 | 0.00 | 0.00 | 79 | 1014.0 |
| 20260830145058 | 27 | 242 | 6.4 | 16.1 | 0.00 | 0.00 | 0.00 | 79 | 1014.1 |
| 20260830144554 | 26 | 134 | 9.7 | 14.5 | 0.00 | 0.00 | 0.00 | 81 | 1014.1 |
| 20260830144037 | 26 | 164 | 8.0 | 12.9 | 0.00 | 0.00 | 0.00 | 82 | 1014.1 |
| 20260830143526 | 26 | 219 | 8.0 | 14.5 | 0.00 | 0.00 | 0.00 | 82 | 1014.1 |
| 20260830143015 | 26 | 223 | 8.0 | 19.3 | 0.00 | 0.00 | 0.00 | 82 | 1014.2 |
| 20260830142505 | 26 | 219 | 12.9 | 19.3 | 0.00 | 0.00 | 0.00 | 82 | 1014.1 |
| 20260830142056 | 26 | 223 | 8.0 | 19.3 | 0.00 | 0.00 | 0.00 | 83 | 1014.1 |
| 20260830141545 | 26 | 190 | 11.3 | 19.3 | 0.00 | 0.00 | 0.00 | 84 | 1014.1 |
| 20260830141035 | 25 | 192 | 8.0 | 14.5 | 0.00 | 0.00 | 0.00 | 86 | 1014.1 |
| 20260830140524 | 25 | 190 | 6.4 | 14.5 | 0.00 | 0.00 | 0.00 | 88 | 1014.0 |
| 20260830140108 | 25 | 210 | 8.0 | 14.5 | 0.00 | 0.00 | 0.00 | 89 | 1014.0 |
| 20260830135552 | 25 | 153 | 8.0 | 14.5 | 0.00 | 0.00 | 0.00 | 89 | 1013.9 |
| 20260830135041 | 24 | 173 | 3.2 | 11.3 | 0.00 | 0.00 | 0.00 | 91 | 1014.0 |
| 20260830134531 | 24 | 157 | 1.6 | 11.3 | 0.00 | 0.00 | 0.00 | 92 | 1014.0 |
| 20260830134020 | 23 | 196 | 3.2 | 11.3 | 0.00 | 0.00 | 0.00 | 93 | 1013.9 |
| 20260830133512 | 23 | 177 | 0.0 | 8.0 | 0.00 | 0.00 | 0.00 | 93 | 1013.9 |
| 20260830133117 | 23 | 177 | 1.6 | 8.0 | 0.00 | 0.00 | 0.00 | 93 | 1013.9 |
| 20260830132550 | 23 | 9 | 0.0 | 1.6 | 0.00 | 0.00 | 0.00 | 93 | 1013.8 |
| 20260830132039 | 22 | 9 | 0.0 | 0.0 | 0.00 | 0.00 | 0.00 | 93 | 1013.8 |
| 20260830131528 | 22 | 5 | 0.0 | 0.0 | 0.00 | 0.00 | 0.00 | 93 | 1013.8 |
| 20260830131019 | 21 | 23 | 0.0 | 3.2 | 0.00 | 0.00 | 0.00 | 93 | 1013.7 |
| 20260830130507 | 21 | 22 | 1.6 | 3.2 | 0.00 | 0.00 | 0.00 | 93 | 1013.7 |
| 20260830130047 | 21 | 300 | 0.0 | 0.0 | 0.00 | 0.00 | 0.00 | 93 | 1013.7 |
| 20260830125536 | 21 | 300 | 0.0 | 0.0 | 0.00 | 0.00 | 0.00 | 93 | 1013.5 |
| 20260830125028 | 20 | 300 | 0.0 | 0.0 | 0.00 | 0.00 | 0.00 | 92 | 1013.5 |
| 20260830124527 | 20 | 300 | 0.0 | 0.0 | 0.00 | 0.00 | 0.00 | 92 | 1013.5 |
| 20260830124003 | 20 | 300 | 0.0 | 0.0 | 0.00 | 0.00 | 0.00 | 92 | 1013.5 |